Tracking 19293 objects as of 20-Nov-2018
HD Live streaming from Space Station
objects crossing your sky now

COSMOS 1579

Track COSMOS 1579 now!
10-day predictions
COSMOS 1579 is classified as:


NORAD ID: 15085
Int'l Code: 1984-069A
Perigee: 903.4 km
Apogee: 995.9 km
Inclination: 65.1 °
Period: 103.9 minutes
Semi major axis: 7320 km
RCS: 2.625 m2 (large)
Launch date: June 29, 1984
Source: Commonwealth of Independent States (former USSR) (CIS)
Launch site: TYURATAM MISSILE AND SPACE COMPLEX (TTMTR)
aabbcc
Your satellite tracking list
Your tracking list is empty




NASA's NSSDC Master Catalog

Two Line Element Set (TLE):
1 15085U 84069A   18324.51417429 -.00000096  00000-0 -59285-5 0  9998
2 15085  65.0521  57.8285 0063136 262.1291  97.2601 13.86053259742704
Source of the keplerian elements: AFSPC